TimeCDT,TemperatureF,Dew PointF,Humidity,Sea Level PressureIn,VisibilityMPH,Wind Direction,Wind SpeedMPH,Gust SpeedMPH,PrecipitationIn,Events,Conditions,WindDirDegrees,DateUTC
12:07 AM,64.4,60.8,88,29.80,7.0,NNE,6.9,-,N/A,,Overcast,20,2014-07-22 05:07:00
12:41 AM,64.4,60.8,88,29.77,7.0,NNE,10.4,-,N/A,,Overcast,20,2014-07-22 05:41:00
12:56 AM,64.4,60.8,88,29.72,10.0,North,16.1,21.9,N/A,,Overcast,10,2014-07-22 05:56:00
1:26 AM,64.4,60.8,88,29.74,10.0,NNE,15.0,21.9,N/A,,Overcast,20,2014-07-22 06:26:00
1:45 AM,64.4,60.8,88,29.74,10.0,NNE,17.3,21.9,N/A,,Overcast,20,2014-07-22 06:45:00
2:08 AM,64.4,60.8,88,29.77,10.0,NW,10.4,19.6,N/A,,Overcast,320,2014-07-22 07:08:00
2:41 AM,62.6,59.0,88,29.81,10.0,WNW,12.7,-,N/A,,Overcast,300,2014-07-22 07:41:00
3:01 AM,62.6,57.2,82,29.81,10.0,WNW,10.4,-,N/A,,Overcast,300,2014-07-22 08:01:00
4:01 AM,60.8,57.2,88,29.84,10.0,NW,8.1,-,N/A,,Mostly Cloudy,320,2014-07-22 09:01:00
4:21 AM,60.8,57.2,88,29.85,10.0,NNW,8.1,-,N/A,,Scattered Clouds,330,2014-07-22 09:21:00
4:41 AM,60.8,55.4,82,29.86,10.0,NNW,5.8,-,N/A,,Clear,330,2014-07-22 09:41:00
5:01 AM,59.0,55.4,88,29.88,10.0,NW,8.1,-,N/A,,Mostly Cloudy,320,2014-07-22 10:01:00
5:21 AM,59.0,55.4,88,29.89,10.0,NW,9.2,-,N/A,,Overcast,310,2014-07-22 10:21:00
5:41 AM,59.0,55.4,88,29.91,10.0,NW,11.5,-,N/A,,Scattered Clouds,310,2014-07-22 10:41:00
6:01 AM,57.2,55.4,94,29.92,10.0,NW,10.4,-,N/A,,Clear,310,2014-07-22 11:01:00
6:21 AM,57.2,53.6,88,29.93,10.0,NW,8.1,-,N/A,,Clear,310,2014-07-22 11:21:00
6:41 AM,57.2,53.6,88,29.94,10.0,NW,10.4,-,N/A,,Clear,310,2014-07-22 11:41:00
7:21 AM,57.2,53.6,88,29.97,10.0,NW,9.2,-,N/A,,Clear,310,2014-07-22 12:21:00
8:01 AM,60.8,57.2,88,29.99,10.0,NW,10.4,-,N/A,,Clear,310,2014-07-22 13:01:00
8:21 AM,62.6,57.2,82,30.00,10.0,NW,12.7,-,N/A,,Clear,310,2014-07-22 13:21:00
8:41 AM,62.6,57.2,82,30.01,10.0,NW,10.4,19.6,N/A,,Clear,310,2014-07-22 13:41:00
9:01 AM,64.4,57.2,77,30.01,10.0,NW,10.4,19.6,N/A,,Clear,320,2014-07-22 14:01:00
9:21 AM,64.4,57.2,77,30.02,10.0,NW,11.5,-,N/A,,Clear,310,2014-07-22 14:21:00
10:01 AM,68.0,57.2,68,30.04,10.0,NW,9.2,-,N/A,,Clear,320,2014-07-22 15:01:00
10:21 AM,69.8,55.4,60,30.04,10.0,NW,15.0,-,N/A,,Clear,310,2014-07-22 15:21:00
11:01 AM,71.6,57.2,60,30.05,10.0,NW,12.7,17.3,N/A,,Clear,320,2014-07-22 16:01:00
11:21 AM,71.6,57.2,60,30.07,10.0,NW,12.7,16.1,N/A,,Clear,320,2014-07-22 16:21:00
12:01 PM,71.6,55.4,57,30.08,10.0,North,10.4,18.4,N/A,,Clear,0,2014-07-22 17:01:00
12:21 PM,73.4,53.6,50,30.09,10.0,NNW,10.4,19.6,N/A,,Scattered Clouds,340,2014-07-22 17:21:00
12:41 PM,73.4,53.6,50,30.09,10.0,NNW,10.4,17.3,N/A,,Scattered Clouds,330,2014-07-22 17:41:00
1:01 PM,73.4,55.4,53,30.09,10.0,NNW,11.5,-,N/A,,Scattered Clouds,340,2014-07-22 18:01:00
1:21 PM,73.4,55.4,53,30.10,10.0,NW,11.5,20.7,N/A,,Scattered Clouds,310,2014-07-22 18:21:00
1:41 PM,73.4,53.6,50,30.11,10.0,WNW,9.2,17.3,N/A,,Scattered Clouds,300,2014-07-22 18:41:00
2:01 PM,73.4,51.8,47,30.11,10.0,NW,13.8,18.4,N/A,,Scattered Clouds,320,2014-07-22 19:01:00
2:21 PM,75.2,53.6,47,30.11,10.0,NW,11.5,16.1,N/A,,Scattered Clouds,320,2014-07-22 19:21:00
2:41 PM,75.2,53.6,47,30.12,10.0,NW,13.8,24.2,N/A,,Scattered Clouds,320,2014-07-22 19:41:00
3:01 PM,75.2,53.6,47,30.12,10.0,NNW,9.2,19.6,N/A,,Scattered Clouds,330,2014-07-22 20:01:00
3:21 PM,75.2,51.8,44,30.13,10.0,NW,13.8,21.9,N/A,,Scattered Clouds,310,2014-07-22 20:21:00
3:41 PM,73.4,53.6,50,30.13,10.0,NNW,11.5,16.1,N/A,,Scattered Clouds,330,2014-07-22 20:41:00
4:01 PM,75.2,53.6,47,30.13,10.0,NNW,10.4,-,N/A,,Scattered Clouds,340,2014-07-22 21:01:00
4:21 PM,75.2,55.4,50,30.14,10.0,WNW,15.0,20.7,N/A,,Scattered Clouds,300,2014-07-22 21:21:00
4:41 PM,75.2,55.4,50,30.14,10.0,NW,16.1,24.2,N/A,,Scattered Clouds,310,2014-07-22 21:41:00
5:01 PM,75.2,55.4,50,30.14,10.0,NW,13.8,19.6,N/A,,Scattered Clouds,320,2014-07-22 22:01:00
5:21 PM,75.2,55.4,50,30.14,10.0,WNW,12.7,21.9,N/A,,Clear,300,2014-07-22 22:21:00
5:41 PM,75.2,55.4,50,30.15,10.0,NW,13.8,20.7,N/A,,Scattered Clouds,310,2014-07-22 22:41:00
6:01 PM,75.2,55.4,50,30.15,10.0,WNW,10.4,17.3,N/A,,Clear,300,2014-07-22 23:01:00
6:41 PM,75.2,57.2,53,30.15,10.0,NW,10.4,19.6,N/A,,Scattered Clouds,310,2014-07-22 23:41:00
7:21 PM,73.4,57.2,57,30.17,10.0,NNW,11.5,17.3,N/A,,Scattered Clouds,330,2014-07-23 00:21:00
7:41 PM,73.4,57.2,57,30.17,10.0,NW,9.2,-,N/A,,Clear,320,2014-07-23 00:41:00
8:01 PM,73.4,57.2,57,30.18,10.0,NNW,6.9,-,N/A,,Clear,330,2014-07-23 01:01:00
8:41 PM,69.8,57.2,64,30.19,10.0,NNW,5.8,-,N/A,,Clear,330,2014-07-23 01:41:00
9:01 PM,66.2,57.2,73,30.20,10.0,NNW,3.5,-,N/A,,Clear,330,2014-07-23 02:01:00
9:21 PM,64.4,57.2,77,30.20,10.0,NNW,3.5,-,N/A,,Clear,330,2014-07-23 02:21:00
10:01 PM,64.4,57.2,77,30.21,10.0,NW,4.6,-,N/A,,Clear,310,2014-07-23 03:01:00
10:41 PM,62.6,55.4,77,30.22,10.0,NW,4.6,-,N/A,,Clear,310,2014-07-23 03:41:00
11:01 PM,62.6,55.4,77,30.23,10.0,NW,3.5,-,N/A,,Clear,310,2014-07-23 04:01:00
11:21 PM,60.8,55.4,82,30.23,10.0,NW,4.6,-,N/A,,Clear,310,2014-07-23 04:21:00
11:41 PM,60.8,55.4,82,30.23,10.0,WNW,5.8,-,N/A,,Clear,300,2014-07-23 04:41:00